Powrót do katalogu

YAOGAN-35 A

AktywnyMilitariaVLEO
NORAD 49390·PAYLOAD·🇨🇳 China

Wystrzelony Nov 6, 2021 z Xichang Satellite Launch Center

Loading…

Następne Przeloty (najbliższe 24 godziny)

TLE

ŚwieżeSource: Space-Track

Epoka: Sep 14, 2026, 14:19 UTC

1 49390U 21101A   26257.59655256  .00007195  00000-0  25996-3 0  9991
2 49390  34.9933  69.9630 0005101 105.8351 254.2928 15.27743411270557

Śledź YAOGAN-35 A w czasie rzeczywistym z AllMySat

Download on the App Store